660  
ASUS41 KRLX 042110  
RWRRLX  
REGIONAL WEATHER ROUNDUP  
NATIONAL WEATHER SERVICE CHARLESTON WV  
400 PM EST SUN DEC 04 2022  
 
NOTE: "FAIR" INDICATES FEW OR NO CLOUDS BELOW 12,000 FEET WITH NO  
SIGNIFICANT WEATHER AND/OR S TO VISIBILITY
.  
 
WVZ003-042200-  
NORTHERN PANHANDLE OF WEST VIRGINIA  
 
CITY SKY/WX TMP DP RH WIND PRES REMARKS
 
WHEELING CLEAR 38 17 42 SW8 30.18F  

 
 
WVZ009-042200-  
NORTHWEST WEST VIRGINIA  
 
CITY SKY/WX TMP DP RH WIND PRES REMARKS
 
PARKERSBURG CLEAR 41 17 38 VRB3 30.23R  

 
 
WVZ006-042200-  
WESTERN WEST VIRGINIA  
 
CITY SKY/WX TMP DP RH WIND PRES REMARKS
 
HUNTINGTON SUNNY 44 19 36 VRB5 30.21F  
POINT PLEASANT CLEAR 44 17 34 CALM 30.25S  

 
 
WVZ015-042200-  
WEST CENTRAL WEST VIRGINIA  
 
CITY SKY/WX TMP DP RH WIND PRES REMARKS
 
CHARLESTON PTCLDY 43 22 43 VRB5 30.19F  

 
 
WVZ509-031-039-042200-  
NORTH CENTRAL WEST VIRGINIA  
 
CITY SKY/WX TMP DP RH WIND PRES REMARKS
 
MORGANTOWN CLEAR 40 20 44 VRB5 30.21R  
CLARKSBURG CLEAR 42 18 37 S7 30.20F  
BUCKHANNON CLEAR 41 16 36 SW6 30.17F  

 
 
WVZ515-516-025-034-042-507-042200-  
SOUTHERN WEST VIRGINIA  
 
CITY SKY/WX TMP DP RH WIND PRES REMARKS
 
BECKLEY CLEAR 41 14 33 CALM 30.16F  
LOGAN FAIR 43 23 45 CALM 30.18F  
PINEVILLE NOT AVBL  
BLUEFIELD SUNNY 39 9 29 W6 30.16F  
LEWISBURG CLEAR 39 23 52 S7 30.16F  

 
 
WVZ525-526-042200-  
NORTHERN MOUNTAINS OF WEST VIRGINIA  
 
CITY SKY/WX TMP DP RH WIND PRES REMARKS
 
ELKINS CLEAR 42 8 24 W6 30.15F  

 
 
WVZ502-504-052-042200-  
EASTERN PANHANDLE OF WEST VIRGINIA  
 
CITY SKY/WX TMP DP RH WIND PRES REMARKS
 
PETERSBURG NOT AVBL  
CUMBERLAND CLEAR 45 11 25 NW10 30.21F  
MARTINSBURG CLEAR 44 17 33 E5 30.17F  

 
 
OHZ075-083-KYZ101-042200-  
SOUTHEAST OHIO/NORTHEAST KENTUCKY  
 
CITY SKY/WX TMP DP RH WIND PRES REMARKS
 
ATHENS CLEAR 42 12 29 CALM 30.22S  
JACKSON NOT AVBL  
ASHLAND SUNNY 43 20 39 VRB5 30.23S  

 
 
 
CLICK HERE TO GO TO PREVIOUS BULLETINS.

The Nexlab WV Page
The Nexlab OH Page
The Nexlab KY Page
The Nexlab VA Page Main Text Page